When you browse on this site, cookies collect data to enhance your experience and personalize the content and advertising you see.
Visit our Privacy Policy to learn more. By continuing to use the site, you agree to this use of cookies and data.
  • In United Kingdom
  • List of Countries
  • For 7 days
  • Water Temperature
  • Satellite Maps
  • Weather Map
  • Weather Widgets
  • user-avatar
    Login

    Hourly Weather Człuchów

    Today, 23 March, Saturday

    Time Temperature Precipitation Wind Pressure Humidity
    00:00 +5°C° 0 mm 2 mps 757 mmHg 91%
    01:00 +5°C° 0 mm 2 mps 757 mmHg 93%
    02:00 +5°C° 0 mm 2 mps 757 mmHg 94%
    03:00 +4°C° 0 mm 3 mps 756 mmHg 94%
    04:00 +4°C° 0 mm 3 mps 756 mmHg 95%
    05:00 +4°C° 0 mm 3 mps 755 mmHg 95%
    06:00 +4°C° 0 mm 3 mps 755 mmHg 94%
    07:00 +5°C° 0 mm 4 mps 755 mmHg 93%
    08:00 +6°C° 0 mm 4 mps 754 mmHg 87%
    09:00 +8°C° 0 mm 4 mps 754 mmHg 82%
    10:00 +11°C° 0 mm 4 mps 754 mmHg 76%
    11:00 +12°C° 0 mm 4 mps 754 mmHg 72%
    12:00 +14°C° 0 mm 4 mps 753 mmHg 67%
    13:00 +17°C° 0 mm 4 mps 753 mmHg 63%
    14:00 +15°C° 0 mm 4 mps 753 mmHg 66%
    15:00 +14°C° 0 mm 5 mps 753 mmHg 68%
    16:00 +13°C° 0 mm 5 mps 753 mmHg 71%
    17:00 +10°C° 0 mm 5 mps 753 mmHg 75%
    18:00 +8°C° 0 mm 4 mps 753 mmHg 78%
    19:00 +7°C° 0 mm 4 mps 753 mmHg 82%
    20:00 +6°C° 0 mm 4 mps 754 mmHg 83%
    21:00 +5°C° 0 mm 4 mps 754 mmHg 84%
    22:00 +5°C° 0 mm 3 mps 755 mmHg 85%
    23:00 +5°C° 0 mm 3 mps 755 mmHg 82%

    Tomorrow, 24 March, Sunday

    Time Temperature Precipitation Wind Pressure Humidity
    00:00 +4°C° 0 mm 3 mps 755 mmHg 79%
    01:00 +4°C° 0 mm 3 mps 755 mmHg 76%
    02:00 +4°C° 0 mm 3 mps 755 mmHg 74%
    03:00 +3°C° 0 mm 3 mps 755 mmHg 73%
    04:00 +3°C° 0 mm 3 mps 755 mmHg 72%
    05:00 +3°C° 0 mm 3 mps 755 mmHg 73%
    06:00 +3°C° 0 mm 3 mps 755 mmHg 74%
    07:00 +3°C° 0 mm 3 mps 755 mmHg 75%
    08:00 +4°C° 0 mm 3 mps 755 mmHg 70%
    09:00 +5°C° 0 mm 3 mps 755 mmHg 64%
    10:00 +5°C° 0 mm 3 mps 755 mmHg 59%
    11:00 +7°C° 0 mm 3 mps 755 mmHg 55%
    12:00 +8°C° 0 mm 3 mps 754 mmHg 51%
    13:00 +8°C° 0 mm 3 mps 754 mmHg 47%
    14:00 +8°C° 0 mm 3 mps 753 mmHg 47%
    15:00 +8°C° 0 mm 3 mps 752 mmHg 48%
    16:00 +8°C° 0 mm 3 mps 752 mmHg 48%
    17:00 +7°C° 0 mm 3 mps 751 mmHg 53%
    18:00 +6°C° 0 mm 2 mps 751 mmHg 58%
    19:00 +5°C° 0 mm 2 mps 751 mmHg 62%
    20:00 +4°C° 0 mm 2 mps 750 mmHg 65%
    21:00 +5°C° 0 mm 1 mps 750 mmHg 67%
    22:00 +4°C° 0 mm 1 mps 749 mmHg 69%
    23:00 +4°C° 0 mm 1 mps 749 mmHg 70%

    Day after tomorrow, 25 March, Monday

    Time Temperature Precipitation Wind Pressure Humidity
    00:00 +2°C° 0 mm 2 mps 748 mmHg 71%
    01:00 +2°C° 0 mm 2 mps 747 mmHg 72%
    02:00 +2°C° 0 mm 2 mps 747 mmHg 72%
    03:00 +2°C° 0 mm 3 mps 746 mmHg 72%
    04:00 +2°C° 0 mm 3 mps 745 mmHg 72%
    05:00 +2°C° 0.1 mm 3 mps 745 mmHg 72%
    06:00 +1°C° 0.1 mm 4 mps 744 mmHg 73%
    07:00 +1°C° 0.1 mm 4 mps 743 mmHg 74%
    08:00 +3°C° 0.2 mm 4 mps 743 mmHg 73%
    09:00 +2°C° 0.2 mm 5 mps 743 mmHg 72%
    10:00 +3°C° 0.2 mm 5 mps 743 mmHg 72%
    11:00 +3°C° 0.3 mm 5 mps 743 mmHg 69%
    12:00 +3°C° 0.3 mm 5 mps 743 mmHg 67%
    13:00 +5°C° 0.3 mm 4 mps 743 mmHg 64%
    14:00 +5°C° 0.1 mm 5 mps 744 mmHg 62%
    15:00 +5°C° 0.1 mm 5 mps 744 mmHg 61%
    16:00 +5°C° 0.1 mm 5 mps 744 mmHg 59%
    17:00 +4°C° 0 mm 4 mps 745 mmHg 65%
    18:00 +1°C° 0 mm 4 mps 746 mmHg 72%
    19:00 +1°C° 0 mm 3 mps 747 mmHg 79%
    20:00 +1°C° 0 mm 4 mps 748 mmHg 80%
    21:00 +1°C° 0 mm 4 mps 749 mmHg 82%
    22:00 +1°C° 0 mm 5 mps 750 mmHg 83%
    23:00 0°C° 0 mm 4 mps 751 mmHg 82%

    26 March, Tuesday

    Time Temperature Precipitation Wind Pressure Humidity
    00:00 0°C° 0 mm 3 mps 751 mmHg 81%
    01:00 -2°C° 0 mm 3 mps 752 mmHg 80%
    02:00 -2°C° 0 mm 3 mps 752 mmHg 79%
    03:00 -2°C° 0 mm 3 mps 753 mmHg 78%
    04:00 -2°C° 0 mm 3 mps 753 mmHg 77%
    05:00 -1°C° 0 mm 3 mps 753 mmHg 77%
    06:00 -2°C° 0 mm 4 mps 753 mmHg 78%
    07:00 -1°C° 0 mm 5 mps 754 mmHg 78%
    08:00 0°C° 0 mm 5 mps 754 mmHg 71%
    09:00 +2°C° 0 mm 5 mps 754 mmHg 64%
    10:00 +3°C° 0 mm 5 mps 754 mmHg 57%
    11:00 +3°C° 0 mm 5 mps 753 mmHg 62%
    12:00 +3°C° 0 mm 5 mps 753 mmHg 66%
    13:00 +2°C° 0 mm 6 mps 753 mmHg 70%
    14:00 +3°C° 0 mm 5 mps 753 mmHg 68%
    15:00 +3°C° 0 mm 5 mps 753 mmHg 65%
    16:00 +3°C° 0 mm 5 mps 753 mmHg 63%
    17:00 +3°C° 0 mm 4 mps 753 mmHg 68%
    18:00 +2°C° 0 mm 3 mps 753 mmHg 74%
    19:00 +1°C° 0 mm 3 mps 753 mmHg 80%
    20:00 +1°C° 0 mm 3 mps 753 mmHg 81%
    21:00 +1°C° 0 mm 3 mps 753 mmHg 82%
    22:00 +1°C° 0 mm 3 mps 754 mmHg 83%
    23:00 +1°C° 0 mm 3 mps 754 mmHg 84%

    27 March, Wednesday

    Time Temperature Precipitation Wind Pressure Humidity
    00:00 +1°C° 0 mm 3 mps 754 mmHg 84%
    01:00 +1°C° 0 mm 3 mps 754 mmHg 85%
    02:00 +1°C° 0 mm 3 mps 754 mmHg 88%
    03:00 +1°C° 0 mm 3 mps 754 mmHg 92%
    04:00 +1°C° 0 mm 3 mps 754 mmHg 96%
    05:00 +1°C° 0 mm 3 mps 754 mmHg 95%
    06:00 +2°C° 0 mm 3 mps 754 mmHg 94%
    07:00 +2°C° 0 mm 3 mps 754 mmHg 93%
    08:00 +1°C° 0 mm 4 mps 755 mmHg 89%
    09:00 +3°C° 0 mm 4 mps 755 mmHg 85%
    10:00 +4°C° 0 mm 4 mps 755 mmHg 82%
    11:00 +5°C° 0.1 mm 4 mps 755 mmHg 80%
    12:00 +5°C° 0.1 mm 4 mps 755 mmHg 79%
    13:00 +5°C° 0.1 mm 4 mps 755 mmHg 78%
    14:00 +5°C° 0.3 mm 3 mps 755 mmHg 81%
    15:00 +5°C° 0.3 mm 3 mps 755 mmHg 84%
    16:00 +6°C° 0.3 mm 2 mps 755 mmHg 87%
    17:00 +6°C° 0.1 mm 2 mps 756 mmHg 90%
    18:00 +6°C° 0.1 mm 2 mps 756 mmHg 92%
    19:00 +6°C° 0.1 mm 1 mps 756 mmHg 95%
    20:00 +6°C° 0 mm 1 mps 756 mmHg 95%
    21:00 +5°C° 0 mm 1 mps 757 mmHg 96%
    22:00 +4°C° 0 mm 1 mps 757 mmHg 96%
    23:00 +4°C° 0 mm 1 mps 757 mmHg 96%

    28 March, Thursday

    Time Temperature Precipitation Wind Pressure Humidity
    00:00 +4°C° 0 mm 1 mps 757 mmHg 96%
    01:00 +3°C° 0 mm 1 mps 757 mmHg 95%
    02:00 +3°C° 0 mm 1 mps 758 mmHg 95%
    03:00 +3°C° 0 mm 1 mps 758 mmHg 95%
    04:00 +3°C° 0 mm 1 mps 758 mmHg 95%
    05:00 +3°C° 0 mm 1 mps 758 mmHg 94%
    06:00 +4°C° 0 mm 1 mps 758 mmHg 93%
    07:00 +4°C° 0 mm 1 mps 759 mmHg 91%
    08:00 +6°C° 0 mm 1 mps 759 mmHg 84%
    09:00 +8°C° 0 mm 1 mps 759 mmHg 78%
    10:00 +9°C° 0 mm 2 mps 759 mmHg 71%
    11:00 +10°C° 0 mm 2 mps 759 mmHg 66%
    12:00 +12°C° 0 mm 2 mps 759 mmHg 61%
    13:00 +13°C° 0 mm 2 mps 759 mmHg 57%
    14:00 +13°C° 0 mm 2 mps 759 mmHg 58%
    15:00 +13°C° 0 mm 2 mps 759 mmHg 60%
    16:00 +12°C° 0 mm 2 mps 758 mmHg 62%
    17:00 +10°C° 0 mm 2 mps 758 mmHg 69%
    18:00 +9°C° 0 mm 2 mps 758 mmHg 75%
    19:00 +8°C° 0 mm 2 mps 758 mmHg 82%
    20:00 +7°C° 0 mm 2 mps 758 mmHg 85%
    21:00 +7°C° 0 mm 2 mps 758 mmHg 88%
    22:00 +6°C° 0 mm 2 mps 758 mmHg 91%
    23:00 +6°C° 0 mm 2 mps 758 mmHg 92%
    Show more